SCP
0 0 0 0 0 0 0 0 0 0 0 0 0 0 0 0 0 0 0 0 0 0 0 0 0 0 0 0 0 0 0 0 0 1 1 2 2 1
0 0 0 0 0 0 0 0 0 0 0 0 0 0 0 0 0 0 0 0 0 0 0 0 0 0 0 0 0 0 0 0 0 0 1 1 1 1
0 0 0 0 0 0 0 0 0 0 0 0 0 0 0 0 0 0 0 0 0 0 0 0 0 0 0 0 0 0 0 0 0 0 0 0 0 0
0 0 0 0 0 0 0 0 0 0 0 0 0 0 0 0 0 0 0 0 0 0 0 0 0 0 0 0 0 0 0 0 0 0 0 0 0 0
0 0 0 0 0 0 0 0 0 0 0 0 0 0 0 0 0 0 0 0 0 0 0 0 0 0 0 0 0 0 0 0 0 0 0 0 0 0
0 0 0 0 0 0 0 0 0 0 0 0 0 0 0 0 0 0 0 0 0 0 0 0 0 0 0 0 0 0 0 0 0 0 0 0 0 0
0 0 0 0 0 0 0 0 0 0 0 0 0 0 0 0 0 0 0 0 0 0 0 0 0 0 0 0 0 0 0 0 0 0 0 0 0 0
0 0 0 0 0 0 0 0 0 0 0 0 0 0 0 0 0 0 0 0 0 0 0 0 0 0 0 0 0 0 0 0 0 0 0 0 0 0
0 0 0 0 0 0 0 0 0 0 0 0 0 0 0 0 0 0 0 0 0 0 0 0 0 0 0 0 0 0 0 0 0 0 0 0 0 0
0 0 0 0 0 0 0 0 0 0 0 0 0 0 0 0 0 0 0 0 0 0 0 0 0 0 0 0 0 0 0 0 0 0 0 0 0 0
0 0 0 0 0 0 0 0 0 0 0 0 0 0 0 0 0 0 0 0 0 0 0 0 0 0 0 0 0 0 0 0 0 0 0 0 0 0
0 0 0 0 0 0 0 0 0 0 0 0 0 0 0 0 0 0 0 0 0 0 0 0 0 0 0 0 0 0 0 0 0 0 0 0 0 0
0 0 0 0 0 0 0 0 0 0 0 0 0 0 0 0 0 0 0 0 0 0 0 0 0 0 0 0 0 0 0 0 0 0 0 0 0 0
0 0 0 0 0 0 0 1 1 0 0 0 0 0 0 0 0 0 0 0 0 0 0 0 0 0 0 0 0 0 0 0 0 0 0 0 0 0
0 0 0 0 0 0 1 1 1 1 0 0 0 0 0 0 0 0 0 0 0 0 0 0 0 0 0 0 0 0 0 0 0 0 0 0 0 0
0 0 0 0 0 0 0 0 0 0 0 0 0 0 0 0 0 0 0 0 0 0 0 0 0 0 0 0 0 0 0 0 0 0 0 0 0 0
0 0 0 0 0 0 0 0 0 0 0 0 0 0 0 0 0 0 0 0 0 0 0 0 0 0 0 0 0 0 0 0 0 0 0 0 0 0
0 0 0 0 0 0 0 0 0 0 0 0 0 0 0 0 0 0 0 0 0 0 0 0 0 0 0 0 0 0 0 0 0 0 0 0 0 0
0 0 0 0 0 0 0 0 0 0 0 0 0 0 0 0 0 0 0 0 0 0 0 0 0 0 0 0 0 0 0 0 0 0 0 0 0 0
0 0 0 0 0 0 0 0 0 0 0 0 0 0 0 0 0 0 0 0 0 0 0 0 0 0 0 0 0 0 0 0 0 0 0 0 0 0
0 0 0 0 0 0 0 0 0 0 0 0 0 0 0 0 0 0 0 0 0 0 0 0 0 0 0 0 0 0 0 0 0 0 0 0 0 0
0 0 0 0 0 0 0 0 0 0 0 0 0 0 0 0 0 0 0 0 0 0 0 0 0 0 0 0 0 0 0 0 0 0 0 0 0 0
0 0 0 0 0 0 0 0 0 0 0 0 0 0 0 0 0 0 0 0 0 0 0 0 0 0 0 0 0 0 0 0 0 0 0 0 0 0
Wind_Speed
3 3 3 2 2 2 2 2 3 2 2 3 3 3 4 3 5 4 4 9 11 11 11 11 11 11 11 12 12 11 10 10 10 9 8 8 7 7
2 3 3 2 2 2 2 2 2 3 1 2 2 3 4 4 7 4 4 9 10 10 10 10 10 11 11 11 12 11 11 10 10 10 10 9 8 8
2 3 3 2 2 2 2 2 2 2 2 1 2 2 3 4 5 4 4 4 5 10 10 10 10 10 10 11 11 11 11 11 10 10 10 9 9 9
1 2 2 2 3 2 2 2 1 1 2 0 2 2 3 3 3 4 4 4 3 8 9 9 10 10 10 10 10 10 10 10 10 10 10 10 10 10
1 2 1 2 2 1 1 1 1 1 1 1 1 2 2 2 3 3 4 3 4 6 7 8 10 10 10 10 10 10 10 10 10 10 10 10 10 10
1 1 1 2 2 1 1 1 1 1 1 1 1 2 2 2 2 3 4 3 4 5 5 6 8 10 10 10 10 10 10 10 10 10 10 10 10 10
1 1 1 2 2 2 1 1 1 1 1 1 1 1 2 2 2 2 3 4 3 3 3 4 4 4 5 8 9 10 10 10 10 10 11 10 11 11
2 1 1 1 1 1 1 2 2 2 1 1 1 1 2 2 2 2 2 3 4 2 2 4 3 4 4 4 7 9 10 10 11 11 11 11 11 11
3 2 1 1 1 1 0 1 1 0 2 3 2 3 3 3 2 2 2 2 4 3 2 4 3 4 4 5 9 10 10 11 11 11 11 12 12 12
3 3 3 2 2 2 1 0 1 2 2 2 3 4 4 3 3 3 3 3 3 3 1 3 3 4 5 4 9 9 9 10 11 12 12 12 11 12
2 3 3 3 4 3 2 1 2 3 3 3 3 4 5 4 2 0 1 1 3 3 1 2 3 4 4 4 5 8 9 10 11 12 12 12 12 12
2 2 4 4 5 4 3 3 3 4 3 3 3 5 4 4 4 2 2 2 2 3 2 1 2 3 4 3 3 4 5 9 11 12 12 12 11 7
2 2 3 5 6 6 4 4 6 4 2 2 2 3 3 2 3 3 3 3 3 5 3 2 2 2 3 5 4 4 5 5 5 7 9 11 11 9
4 3 4 6 6 6 5 5 7 4 1 1 2 3 3 3 4 4 4 5 6 7 5 3 4 4 4 6 6 4 4 5 5 6 6 9 10 11
4 5 6 6 6 5 6 6 5 2 2 2 4 4 4 4 3 3 3 4 5 6 6 5 5 5 4 6 6 6 6 5 5 5 6 6 6 6
3 4 5 5 4 4 4 4 3 3 3 4 4 4 3 2 3 3 3 3 3 5 5 6 6 6 6 7 7 8 7 6 5 6 7 7 7 6
2 1 1 1 2 2 2 3 2 2 3 3 4 4 3 4 4 3 3 3 3 5 5 4 4 5 7 7 7 8 8 7 7 7 7 8 7 7
3 2 3 3 4 4 4 4 3 4 4 4 4 4 4 5 5 4 3 4 5 6 6 5 4 4 4 6 10 9 7 8 7 7 6 8 9 7
3 3 4 4 5 4 4 4 5 5 4 4 5 5 5 5 4 5 4 5 6 6 6 5 4 4 7 9 6 8 7 7 7 7 7 7 9 9
4 4 5 5 5 5 5 5 5 4 4 4 5 5 5 5 5 5 5 6 6 6 6 5 5 6 8 9 8 6 9 8 7 8 8 7 8 10
5 5 5 5 5 5 5 5 5 5 5 4 5 5 5 5 6 6 6 8 7 6 7 7 7 10 6 5 7 7 6 9 11 9 8 8 9 8
5 5 5 5 5 5 5 5 5 5 5 5 5 5 5 5 7 8 7 6 6 7 8 8 6 5 4 7 10 10 10 8 10 14 15 13 9 9
5 5 5 5 5 5 5 5 6 6 5 5 6 6 6 6 6 6 7 7 7 7 7 7 6 5 6 7 9 9 12 11 8 8 8 12 17 20
Wind_Direction
65 64 60 40 51 63 87 116 127 94 358 329 335 339 345 0 10 11 6 14 22 26 28 28 26 24 21 20 17 15 14 15 14 10 4 356 349 340
69 69 59 41 48 54 71 78 99 132 143 305 304 316 338 3 12 11 11 18 19 20 21 24 23 23 21 19 15 12 9 7 6 2 357 351 346 340
61 74 65 62 64 54 62 71 73 104 133 300 314 327 350 357 353 358 5 10 5 16 20 22 20 17 14 13 10 6 4 2 359 355 351 348 343 336
89 84 66 71 61 55 67 73 77 100 134 281 329 338 338 339 343 351 356 0 356 6 13 14 13 10 7 5 3 1 359 356 355 350 346 342 337 334
148 133 124 99 71 57 68 72 60 70 101 127 313 319 319 335 343 343 349 345 346 356 2 7 5 3 360 357 356 355 354 352 349 347 343 338 334 328
167 159 162 162 171 156 108 103 96 75 73 90 332 325 321 325 354 343 341 340 338 346 348 350 352 356 354 352 352 352 350 349 346 343 339 334 330 326
179 187 190 188 181 166 151 162 134 107 85 68 334 337 331 336 328 318 323 321 319 335 334 333 337 339 339 339 345 347 348 349 347 345 341 336 331 328
190 219 233 245 236 206 172 158 150 152 170 167 235 258 279 274 289 302 314 334 319 322 331 312 324 320 318 318 331 338 342 343 342 340 339 338 334 331
188 194 215 224 200 163 212 14 349 230 188 182 202 237 250 250 254 281 276 269 270 287 316 299 310 304 305 317 327 333 336 337 337 335 334 333 331 327
199 197 201 225 210 177 157 103 305 295 270 225 212 236 243 239 217 231 247 268 275 280 266 285 299 292 299 301 313 324 329 330 331 330 327 326 326 324
227 214 205 215 228 205 170 206 276 289 282 273 266 277 287 285 264 207 310 312 300 293 256 255 284 294 289 285 298 313 319 321 321 320 320 321 322 320
240 241 229 222 232 224 198 200 244 264 276 301 302 302 295 292 289 232 212 232 267 284 260 245 277 309 303 280 283 296 303 307 309 307 310 313 315 312
221 238 241 239 238 234 221 212 237 247 241 259 280 290 293 285 280 259 226 216 232 253 252 223 257 263 267 289 289 280 280 287 294 293 299 303 304 303
220 231 236 241 242 240 235 240 250 254 232 248 266 271 269 270 269 265 253 242 237 246 253 229 242 247 265 281 286 284 280 278 279 283 287 294 294 295
225 228 236 246 251 253 252 251 248 231 220 239 253 256 249 254 266 278 276 267 265 260 257 235 238 249 245 262 275 279 289 283 269 274 282 285 285 287
238 247 249 254 246 251 262 263 243 224 223 236 249 255 255 258 260 257 266 275 283 282 264 247 243 241 255 260 266 277 276 277 279 277 280 280 278 270
209 226 245 258 256 262 262 261 252 247 245 242 243 256 262 264 264 254 248 253 259 279 289 282 261 251 249 257 268 269 273 274 273 279 282 283 277 270
191 221 232 233 238 243 246 254 248 244 243 242 244 248 254 258 265 261 249 249 263 271 275 278 289 298 290 263 237 259 267 271 277 276 271 280 284 277
206 226 232 235 239 239 238 239 244 245 240 239 245 248 250 254 257 260 258 260 266 269 270 269 266 272 286 290 269 229 256 275 280 280 273 271 279 283
219 230 236 239 239 239 239 241 246 248 242 243 245 247 246 249 254 257 256 257 265 271 275 268 255 253 261 277 283 274 249 258 271 277 280 278 275 276
232 238 240 240 240 240 241 240 241 244 245 243 246 247 246 246 253 256 258 262 262 266 270 269 261 262 266 274 278 278 267 251 254 267 278 282 286 285
238 240 243 243 242 241 240 239 243 246 245 244 248 249 247 244 251 255 256 258 260 262 268 274 276 271 254 263 274 282 286 281 269 267 265 262 269 275
243 242 244 245 244 244 241 240 243 247 243 243 247 250 250 249 249 250 253 255 260 267 273 279 277 263 259 262 270 277 282 285 285 284 274 263 261 263